Volver al catálogo

DELTA 1 DEB

ActivoPO
NORAD 21550·DEBRIS·🇺🇸 United States

Lanzado Jun 12, 1975 desde Vandenberg Space Force Base

Loading…

Próximos Pases (próximas 24 horas)

TLE

ActualizadoSource: Space-Track

Época: Sep 14, 2026, 11:49 UTC

1 21550U 75052HE  26257.49255966  .00000150  00000-0  74868-3 0  9992
2 21550  99.8373 137.3419 0541993 175.6012 312.7283 12.46040229603583

Sigue DELTA 1 DEB en tiempo real con AllMySat

Download on the App Store